Regional Weather Roundup
Issued by NWS Portland, ME

Home | Current Version | Previous Version | Text Only | Print | Product List | Glossary On
Versions: 1 2 3 4 5 6 7 8 9 10 11 12 13 14 15 16 17 18 19 20 21 22 23 24 25 26 27 28 29 30 31 32 33 34 35 36 37 38 39 40 41 42 43 44 45 46 47 48 49 50
000
ASUS41 KGYX 162310
RWRGYX
WEATHER ROUNDUP FOR MAINE AND NEW HAMPSHIRE
NATIONAL WEATHER SERVICE GRAY ME
600 PM EST SAT DEC 16 2017

MEZ002-005-006-010-012-015-018-020-021-024-026-027-029-170000-
MAINE

CITY           SKY/WX    TMP DP  RH WIND       PRES   REMARKS
PORTLAND       MOCLDY    26  16  65 W5        29.97R
SANFORD        MOCLDY    25  20  81 W9        29.97R
BAR HARBOR     CLEAR     20  14  77 VRB3      29.93R
WISCASSET      PTCLDY    25  13  60 VRB3      29.97R
ROCKLAND       PTCLDY    24  12  60 NW8       29.94R
FRYEBURG       MOCLDY    22  16  78 E3        29.97R
LEWISTONAUBURN FLURRIES  24  16  71 W10       29.96R WCI  14
AUGUSTA        CLEAR     23   9  55 NW7       29.94R
WATERVILLE     CLEAR     21  10  62 NW8       29.89R
BANGOR         MOCLDY    20  15  81 NW6       29.93R
GREENVILLE       N/A     14  10  84 NW7       29.81R
MILLINOCKET    CLEAR     15   6  67 W5        29.90R
HOULTON        CLEAR     14   3  61 NW10      29.83R WCI   1
PRESQUE ISLE   CLEAR      9   2  73 W7        29.85R
FRENCHVILLE    CLEAR      6  -1  73 NW15      29.79R WCI -12
CARIBOU        CLEAR      9  -1  64 NW7       29.83R
$$

NHZ002-005-008-009-011-012-014-170000-
NEW HAMPSHIRE

CITY           SKY/WX    TMP DP  RH WIND       PRES   REMARKS
PORTSMOUTH     LGT SNOW  27  19  74 NW25G37   29.99R VSB 3/4 WCI  11
ROCHESTER      CLOUDY    25  21  85 MISG      29.97R
NASHUA         PTCLDY    26  19  74 W8G14     30.02R
MANCHESTER     PTCLDY    28  13  53 W9G20     29.99R
CONCORD        PTCLDY    24  19  81 W8        29.99R
LACONIA        FLURRIES  22  16  78 VRB6      29.98R
PLYMOUTH       FAIR      22  10  59 W6        29.98R
BERLIN         CLEAR     16   6  65 NW8       29.92R
WHITEFIELD     CLEAR     16   9  74 W8        29.96R
JAFFREY        PTCLDY    23  18  81 CALM      29.96R
KEENE          FLURRIES  24  16  71 N14G23    30.03R WCI  12
LEBANON        CLEAR     14  10  84 CALM      29.99R
MT WASHINGTON  SNOWSHWR  -6  -6 100 NW60G69     N/A  VSB 0   WCI -41
$$

VTZ005-007-008-170000-
VERMONT

CITY           SKY/WX    TMP DP  RH WIND       PRES   REMARKS
ST JOHNSBURY     N/A     17  10  74 MISG      29.99R
MONTPELIER     MOCLDY    15   8  73 NW6       30.01R
BURLINGTON     CLEAR     19   7  59 N6        30.06R
$$

MAZ007-012-024-CTZ003-RIZ002-NYZ038-NYZ072-170000-
SOUTHERN NEW ENGLAND AND NY

CITY           SKY/WX    TMP DP  RH WIND       PRES   REMARKS
BOSTON         PTCLDY    30  16  56 W16G23    30.01R WCI  19
WORCESTER      CLOUDY    24  18  77 W8        29.98R
NANTUCKET      CLOUDY    34  22  61 NW17G24   30.00R
PROVIDENCE     CLOUDY    33  21  61 NW9       30.04R
HARTFORD       CLOUDY    29  21  72 NW8       30.05R
ALBANY         MOCLDY    25  15  66 NW9       30.08R
NEW YORK CITY  CLOUDY    40  24  53 W12G26    30.05R
$$

ANZ081-ANZ082-ANZ150-NHZ014-MEZ023>029-170000-
COASTAL MARINE OBSERVATIONS

STATION/POSITION TIME  TEMP    WIND        PRES    WAVE
                       AIR SEA DIR/SP/G            HT/PER
                 (UTC) (F)     (DEG/KT/KT) (MB)    (FT/S)
MOUNT DESERT ROC 2300   29     300/ 21/ 25 1013.0R
MATINICUS ROCK   2200   30     300/ 21/ 25 1011.6R
ISLE OF SHOALS   2200   30     270/ 24/ 27 1013.4R
JEFFREYS LEDGE   2206      47                N/A     5/ 5
GEORGES BANK BUO 2150   40 50              1010.9   13/ 9
$$

.............KEY..............
   WCI - WIND CHILL
   TC  - TEMPERATURE IN CELSIUS
   VSB - VISIBILITY IN MILES
   HX  - HEAT INDEX
   FAIR- INDICATES FEW OR NO CLOUDS BELOW 12,000 FT, WITH NO
         SIGNIFICANT WEATHER AND/OR OBSTRUCTIONS TO VISIBILITY.





USA.gov is the U.S. government's official web portal to all federal, state and local government web resources and services.